Location: Bord�res
(43.2000°N, 0.2167°W)
Time: 14:31:23
(UTC+00:00)

HJ-1C - Pass Details

Date: 03 March 2021
Orbit: 428 x 440 km, 97.1° (Epoch: 21 April)

Event Time Altitude Azimuth Distance (km) Brightness Sun altitude
Rises 18:26:27 0° 147° (SSE) 2,418 6.8 -7.0°
Reaches altitude 10° 18:28:35 10° 137° (SE) 1,551 5.7 -7.4°
Maximum altitude 18:31:35 32° 72° (ENE) 777 4.1 -7.9°
Drops below altitude 10° 18:34:36 10° 8° (N) 1,557 6.0 -8.4°
Sets 18:36:44 0° 358° (N) 2,428 7.1 -8.8°
